WUK5368 LEVC-EGGW

Flight info

Callsign WUK5368
Flight time 1h 49m
Altitude 36000
Route SOPET N608 MATEX Z475 OSLAP Y90 USKAR N863 GIROM DCT AGN DCT SECHE DCT UVELI DCT CNA DCT TUPAR UN861 DIKRO UM185 DESNA/N0402F240 M185 TELTU
Aircraft A321/M-SDE3FGHIRWY/LB1

Departure

Time 2026-05-07 11:18
Airport Valencia Airport (LEVC)

Arrival

Time 2026-05-07 13:07
Airport London Luton Airport (EGGW)
Time Latitude Longitude Altitude Speed Heading
2026-05-07 11:00 39.49293 -0.47569 211 ft 0 kts 116°
2026-05-07 11:11 39.49298 -0.47583 213 ft 2 kts 116°
2026-05-07 11:11 39.49310 -0.47607 211 ft 4 kts 154°
2026-05-07 11:12 39.49332 -0.47608 213 ft 4 kts 203°
2026-05-07 11:12 39.49341 -0.47603 215 ft 0 kts 206°
2026-05-07 11:13 39.49331 -0.47610 213 ft 6 kts 206°
2026-05-07 11:13 39.49285 -0.47641 209 ft 8 kts 206°
2026-05-07 11:14 39.49233 -0.47670 211 ft 8 kts 205°
2026-05-07 11:14 39.49178 -0.47705 209 ft 9 kts 204°
2026-05-07 11:14 39.49120 -0.47739 211 ft 10 kts 206°
2026-05-07 11:14 39.49060 -0.47887 216 ft 30 kts 274°
2026-05-07 11:15 39.49127 -0.48150 211 ft 31 kts 296°
2026-05-07 11:15 39.49223 -0.48394 217 ft 30 kts 295°
2026-05-07 11:15 39.49309 -0.48641 215 ft 30 kts 295°
2026-05-07 11:15 39.49404 -0.48885 212 ft 30 kts 298°
2026-05-07 11:16 39.49503 -0.49128 213 ft 31 kts 292°
2026-05-07 11:16 39.49643 -0.49495 209 ft 56 kts 296°
2026-05-07 11:16 39.49805 -0.49946 211 ft 47 kts 283°
2026-05-07 11:16 39.49763 -0.50083 214 ft 15 kts 201°
2026-05-07 11:17 39.49660 -0.50042 215 ft 19 kts 137°
2026-05-07 11:17 39.49551 -0.49791 211 ft 66 kts 116°
2026-05-07 11:17 39.49221 -0.48918 219 ft 145 kts 114°
2026-05-07 11:17 39.48733 -0.47602 796 ft 168 kts 113°
2026-05-07 11:18 39.48198 -0.46254 1847 ft 172 kts 117°
2026-05-07 11:18 39.47614 -0.44834 2361 ft 187 kts 117°
2026-05-07 11:18 39.46884 -0.43309 2641 ft 213 kts 123°
2026-05-07 11:18 39.45962 -0.41665 3033 ft 236 kts 123°
2026-05-07 11:19 39.45358 -0.39622 3542 ft 251 kts 103°
2026-05-07 11:19 39.44973 -0.37420 4278 ft 258 kts 103°
2026-05-07 11:19 39.44564 -0.35082 5049 ft 265 kts 103°
2026-05-07 11:19 39.44152 -0.32738 5799 ft 270 kts 103°
2026-05-07 11:20 39.43785 -0.30332 6561 ft 276 kts 93°
2026-05-07 11:20 39.44120 -0.27878 7225 ft 283 kts 64°
2026-05-07 11:20 39.45089 -0.26179 7802 ft 286 kts 39°
2026-05-07 11:20 39.46852 -0.25005 8517 ft 288 kts 11°
2026-05-07 11:21 39.48819 -0.24687 9269 ft 291 kts
2026-05-07 11:21 39.50865 -0.24336 10052 ft 295 kts
2026-05-07 11:21 39.52927 -0.23902 10367 ft 315 kts
2026-05-07 11:21 39.55168 -0.23402 10560 ft 339 kts
2026-05-07 11:22 39.57565 -0.22866 10687 ft 361 kts
2026-05-07 11:22 39.60121 -0.22305 10874 ft 381 kts
2026-05-07 11:22 39.62758 -0.21735 11409 ft 388 kts
2026-05-07 11:22 39.65390 -0.20838 12047 ft 395 kts 18°
2026-05-07 11:23 39.67899 -0.19325 12709 ft 401 kts 28°
2026-05-07 11:23 39.70190 -0.17218 13360 ft 408 kts 39°
2026-05-07 11:23 39.72260 -0.14647 13985 ft 413 kts 43°
2026-05-07 11:23 39.74330 -0.12010 14567 ft 418 kts 43°
2026-05-07 11:24 39.76421 -0.09349 15151 ft 423 kts 43°
2026-05-07 11:24 39.78533 -0.06664 15740 ft 427 kts 43°
2026-05-07 11:24 39.80684 -0.03957 16317 ft 432 kts 40°
2026-05-07 11:24 39.83078 -0.01583 16865 ft 435 kts 30°
2026-05-07 11:25 39.85764 0.00243 17390 ft 437 kts 20°
2026-05-07 11:25 39.88655 0.01479 17922 ft 439 kts 13°
2026-05-07 11:25 39.91573 0.02540 18416 ft 443 kts 13°
2026-05-07 11:25 39.94555 0.03637 18881 ft 447 kts 13°
2026-05-07 11:26 39.97560 0.04755 19357 ft 450 kts 13°
2026-05-07 11:26 40.00583 0.05889 19836 ft 454 kts 13°
2026-05-07 11:26 40.03626 0.07032 20296 ft 457 kts 13°
2026-05-07 11:26 40.06695 0.08179 20768 ft 460 kts 13°
2026-05-07 11:27 40.09786 0.09329 21225 ft 464 kts 13°
2026-05-07 11:27 40.12898 0.10487 21672 ft 467 kts 13°
2026-05-07 11:27 40.16036 0.11658 22111 ft 470 kts 13°
2026-05-07 11:27 40.19189 0.12839 22545 ft 473 kts 12°
2026-05-07 11:28 40.22367 0.14032 22989 ft 477 kts 12°
2026-05-07 11:28 40.25524 0.15215 23397 ft 480 kts 12°
2026-05-07 11:28 40.28740 0.16418 23757 ft 483 kts 12°
2026-05-07 11:28 40.31985 0.17630 24093 ft 486 kts 12°
2026-05-07 11:29 40.35254 0.18850 24421 ft 489 kts 12°
2026-05-07 11:29 40.38536 0.20079 24752 ft 492 kts 12°
2026-05-07 11:29 40.41844 0.21323 25079 ft 496 kts 12°
2026-05-07 11:29 40.45170 0.22578 25419 ft 499 kts 12°
2026-05-07 11:30 40.48516 0.23845 25766 ft 501 kts 12°
2026-05-07 11:30 40.51867 0.25116 26166 ft 502 kts 12°
2026-05-07 11:30 40.55204 0.26494 26641 ft 504 kts 17°
2026-05-07 11:30 40.58394 0.28419 27098 ft 507 kts 25°
2026-05-07 11:31 40.61516 0.30578 27555 ft 507 kts 25°
2026-05-07 11:31 40.64640 0.32733 28021 ft 507 kts 25°
2026-05-07 11:31 40.67761 0.34886 28483 ft 506 kts 25°
2026-05-07 11:31 40.70878 0.37038 28946 ft 506 kts 25°
2026-05-07 11:32 40.77072 0.41321 29885 ft 505 kts 25°
2026-05-07 11:32 40.80181 0.43478 30304 ft 505 kts 25°
2026-05-07 11:32 40.83292 0.45638 30697 ft 504 kts 25°
2026-05-07 11:33 40.86392 0.47791 31093 ft 504 kts 25°
2026-05-07 11:33 40.89493 0.49948 31491 ft 503 kts 25°
2026-05-07 11:33 40.92596 0.52111 31885 ft 503 kts 25°
2026-05-07 11:33 40.95690 0.54269 32289 ft 502 kts 25°
2026-05-07 11:34 40.98777 0.56425 32687 ft 502 kts 25°
2026-05-07 11:34 41.01860 0.58582 33071 ft 501 kts 25°
2026-05-07 11:34 41.04942 0.60742 33444 ft 501 kts 25°
2026-05-07 11:34 41.08020 0.62901 33833 ft 501 kts 25°
2026-05-07 11:35 41.11099 0.65065 34166 ft 500 kts 24°
2026-05-07 11:35 41.14219 0.66930 34481 ft 495 kts 16°
2026-05-07 11:35 41.17494 0.68288 34777 ft 492 kts 12°
2026-05-07 11:35 41.20786 0.69558 35091 ft 492 kts 12°
2026-05-07 11:36 41.24071 0.70832 35407 ft 491 kts 12°
2026-05-07 11:36 41.27341 0.72103 35734 ft 490 kts 12°
2026-05-07 11:36 41.30624 0.73385 35946 ft 491 kts 13°
2026-05-07 11:37 41.37199 0.75962 35986 ft 494 kts 13°
2026-05-07 11:37 41.43796 0.78552 35986 ft 494 kts 13°
2026-05-07 11:38 41.50403 0.81150 35988 ft 494 kts 13°
2026-05-07 11:38 41.57000 0.83738 35991 ft 494 kts 13°
2026-05-07 11:39 41.63601 0.86341 35993 ft 495 kts 13°
2026-05-07 11:39 41.70158 0.88941 36002 ft 495 kts 13°
2026-05-07 11:40 41.76765 0.91564 36009 ft 496 kts 13°
2026-05-07 11:40 41.83380 0.94192 36002 ft 495 kts 13°
2026-05-07 11:41 41.89990 0.96826 36002 ft 495 kts 13°
2026-05-07 11:41 41.96587 0.99457 36000 ft 495 kts 13°
2026-05-07 11:42 42.03179 1.02100 35997 ft 494 kts 13°
2026-05-07 11:42 42.09734 1.04722 36001 ft 494 kts 13°
2026-05-07 11:43 42.16442 1.06200 36003 ft 485 kts 356°
2026-05-07 11:43 42.22050 1.05756 36001 ft 481 kts 351°
2026-05-07 11:44 42.28671 1.05033 36009 ft 481 kts 351°
2026-05-07 11:44 42.35341 1.04315 36005 ft 481 kts 351°
2026-05-07 11:45 42.42011 1.03599 36008 ft 481 kts 351°
2026-05-07 11:45 42.48675 1.02887 36009 ft 480 kts 351°
2026-05-07 11:46 42.55333 1.02166 36002 ft 479 kts 351°
2026-05-07 11:46 42.61981 1.01439 36001 ft 479 kts 351°
2026-05-07 11:47 42.68632 1.00708 36001 ft 479 kts 352°
2026-05-07 11:47 42.75276 0.99969 36008 ft 479 kts 351°
2026-05-07 11:48 42.81864 0.99240 36008 ft 478 kts 352°
2026-05-07 11:48 42.88485 0.98515 36011 ft 478 kts 352°
2026-05-07 11:49 42.95112 0.97783 36013 ft 477 kts 352°
2026-05-07 11:49 43.01729 0.97056 36017 ft 477 kts 352°
2026-05-07 11:50 43.08339 0.96328 35977 ft 477 kts 352°
2026-05-07 11:50 43.14951 0.95593 36001 ft 477 kts 352°
2026-05-07 11:51 43.21567 0.94855 36016 ft 477 kts 352°
2026-05-07 11:51 43.28144 0.94118 36022 ft 477 kts 352°
2026-05-07 11:52 43.34765 0.93375 36025 ft 477 kts 353°
2026-05-07 11:52 43.41378 0.92638 36030 ft 476 kts 352°
2026-05-07 11:53 43.47984 0.91891 36026 ft 476 kts 353°
2026-05-07 11:53 43.54596 0.91158 36031 ft 476 kts 353°
2026-05-07 11:54 43.61151 0.90427 36033 ft 476 kts 352°
2026-05-07 11:54 43.67757 0.89678 36027 ft 476 kts 352°
2026-05-07 11:55 43.74351 0.88917 36032 ft 476 kts 352°
2026-05-07 11:55 43.80947 0.88166 36031 ft 476 kts 352°
2026-05-07 11:56 43.87517 0.87195 36028 ft 472 kts 345°
2026-05-07 11:56 43.93642 0.84178 36037 ft 466 kts 332°
2026-05-07 11:57 43.99521 0.80386 36045 ft 466 kts 332°
2026-05-07 11:57 44.05403 0.76597 36052 ft 466 kts 332°
2026-05-07 11:58 44.11283 0.72786 36057 ft 465 kts 332°
2026-05-07 11:58 44.17106 0.68997 36060 ft 465 kts 332°
2026-05-07 11:59 44.22978 0.65180 36056 ft 465 kts 332°
2026-05-07 11:59 44.28840 0.61364 36055 ft 465 kts 332°
2026-05-07 12:00 44.34704 0.57536 36049 ft 465 kts 332°
2026-05-07 12:00 44.40563 0.53704 36048 ft 465 kts 332°
2026-05-07 12:01 44.46416 0.49859 36048 ft 464 kts 331°
2026-05-07 12:01 44.52249 0.45985 36049 ft 464 kts 331°
2026-05-07 12:02 44.58085 0.42098 36052 ft 464 kts 331°
2026-05-07 12:02 44.63892 0.38234 36059 ft 464 kts 331°
2026-05-07 12:03 44.69735 0.34346 36058 ft 464 kts 331°
2026-05-07 12:03 44.75564 0.30446 36053 ft 464 kts 331°
2026-05-07 12:04 44.81388 0.26531 36048 ft 464 kts 331°
2026-05-07 12:04 44.87221 0.22605 36049 ft 464 kts 331°
2026-05-07 12:05 44.93048 0.18686 36049 ft 464 kts 331°
2026-05-07 12:05 44.98882 0.14763 36052 ft 464 kts 330°
2026-05-07 12:06 45.04711 0.10817 36064 ft 464 kts 330°
2026-05-07 12:06 45.10531 0.06863 36057 ft 464 kts 330°
2026-05-07 12:07 45.16358 0.02898 36059 ft 464 kts 330°
2026-05-07 12:07 45.22180 -0.01056 36042 ft 464 kts 330°
2026-05-07 12:08 45.27966 -0.04999 36044 ft 464 kts 330°
2026-05-07 12:08 45.33787 -0.08976 36043 ft 464 kts 330°
2026-05-07 12:09 45.39601 -0.12968 36039 ft 464 kts 330°
2026-05-07 12:09 45.45407 -0.16968 36037 ft 464 kts 330°
2026-05-07 12:10 45.51211 -0.20969 36032 ft 463 kts 330°
2026-05-07 12:10 45.57015 -0.24972 36034 ft 463 kts 330°
2026-05-07 12:11 45.62816 -0.28984 36032 ft 463 kts 330°
2026-05-07 12:11 45.68796 -0.32437 36027 ft 467 kts 339°
2026-05-07 12:12 45.74992 -0.35219 36028 ft 467 kts 339°
2026-05-07 12:12 45.81150 -0.38003 36030 ft 467 kts 339°
2026-05-07 12:13 45.87347 -0.40814 36030 ft 467 kts 339°
2026-05-07 12:13 45.93622 -0.43271 36031 ft 470 kts 350°
2026-05-07 12:14 46.00121 -0.44414 36037 ft 471 kts 350°
2026-05-07 12:14 46.06623 -0.45542 36033 ft 471 kts 350°
2026-05-07 12:15 46.13082 -0.46660 36036 ft 470 kts 350°
2026-05-07 12:15 46.19577 -0.47794 36037 ft 470 kts 350°
2026-05-07 12:16 46.26076 -0.48930 36037 ft 470 kts 350°
2026-05-07 12:16 46.32563 -0.50067 36038 ft 470 kts 350°
2026-05-07 12:17 46.39061 -0.51210 36040 ft 470 kts 350°
2026-05-07 12:17 46.45540 -0.52361 36040 ft 470 kts 350°
2026-05-07 12:18 46.52029 -0.53516 36043 ft 469 kts 350°
2026-05-07 12:18 46.58508 -0.54658 36045 ft 469 kts 350°
2026-05-07 12:19 46.64987 -0.55800 36046 ft 468 kts 350°
2026-05-07 12:19 46.71453 -0.56951 36046 ft 468 kts 350°
2026-05-07 12:20 46.77929 -0.58108 36045 ft 468 kts 350°
2026-05-07 12:20 46.84388 -0.59263 36046 ft 468 kts 350°
2026-05-07 12:21 46.90818 -0.60420 36046 ft 468 kts 350°
2026-05-07 12:21 46.97274 -0.61587 36047 ft 468 kts 350°
2026-05-07 12:22 47.03733 -0.62756 36050 ft 467 kts 350°
2026-05-07 12:22 47.10185 -0.63922 36048 ft 467 kts 351°
2026-05-07 12:23 47.16640 -0.65087 36047 ft 467 kts 351°
2026-05-07 12:23 47.23095 -0.66250 36048 ft 467 kts 351°
2026-05-07 12:24 47.29545 -0.67423 36044 ft 467 kts 351°
2026-05-07 12:24 47.35983 -0.68597 36052 ft 466 kts 351°
2026-05-07 12:25 47.42416 -0.69781 36054 ft 466 kts 351°
2026-05-07 12:25 47.48859 -0.70962 36057 ft 466 kts 351°
2026-05-07 12:26 47.55300 -0.72144 36055 ft 466 kts 351°
2026-05-07 12:26 47.61700 -0.73318 36054 ft 466 kts 351°
2026-05-07 12:27 47.68134 -0.74510 36058 ft 466 kts 351°
2026-05-07 12:27 47.74578 -0.75710 36064 ft 466 kts 351°
2026-05-07 12:28 47.81013 -0.76909 36063 ft 466 kts 351°
2026-05-07 12:28 47.87455 -0.78101 36073 ft 466 kts 351°
2026-05-07 12:29 47.93896 -0.79302 36075 ft 466 kts 351°
2026-05-07 12:29 48.00338 -0.80501 36078 ft 466 kts 351°
2026-05-07 12:30 48.06742 -0.81706 36078 ft 466 kts 351°
2026-05-07 12:30 48.13179 -0.82920 36080 ft 466 kts 351°
2026-05-07 12:31 48.19632 -0.83994 36074 ft 467 kts 355°
2026-05-07 12:31 48.26131 -0.84353 36073 ft 468 kts 356°
2026-05-07 12:32 48.32647 -0.84546 36070 ft 468 kts 357°
2026-05-07 12:32 48.39152 -0.84765 36066 ft 468 kts 356°
2026-05-07 12:33 48.48915 -0.85196 36067 ft 468 kts 356°
2026-05-07 12:33 48.55376 -0.85472 36067 ft 468 kts 356°
2026-05-07 12:34 48.61882 -0.85743 36065 ft 468 kts 356°
2026-05-07 12:34 48.68382 -0.86017 36066 ft 467 kts 356°
2026-05-07 12:35 48.74886 -0.86292 36067 ft 467 kts 356°
2026-05-07 12:35 48.81384 -0.86569 36071 ft 467 kts 356°
2026-05-07 12:36 48.87881 -0.86850 36069 ft 467 kts 356°
2026-05-07 12:36 48.94380 -0.87137 36072 ft 467 kts 356°
2026-05-07 12:37 48.99787 -0.87370 36073 ft 467 kts 356°
2026-05-07 12:37 49.07338 -0.87688 36082 ft 467 kts 356°
2026-05-07 12:38 49.12779 -0.87916 36073 ft 467 kts 356°
2026-05-07 12:38 49.19273 -0.88186 36080 ft 467 kts 356°
2026-05-07 12:39 49.25770 -0.88472 36079 ft 467 kts 356°
2026-05-07 12:39 49.32224 -0.88756 36081 ft 467 kts 356°
2026-05-07 12:40 49.38727 -0.89031 36085 ft 467 kts 357°
2026-05-07 12:40 49.45235 -0.88897 36089 ft 468 kts
2026-05-07 12:41 49.51735 -0.88337 36094 ft 468 kts
2026-05-07 12:41 49.58244 -0.87796 36096 ft 468 kts
2026-05-07 12:42 49.64746 -0.87378 36097 ft 468 kts
2026-05-07 12:42 49.71257 -0.87000 36103 ft 468 kts
2026-05-07 12:43 49.77768 -0.86610 36101 ft 468 kts
2026-05-07 12:43 49.84278 -0.86213 36106 ft 468 kts
2026-05-07 12:44 49.90736 -0.85802 36112 ft 468 kts
2026-05-07 12:44 49.97260 -0.85380 36113 ft 468 kts
2026-05-07 12:45 50.03770 -0.84970 36112 ft 468 kts
2026-05-07 12:45 50.10280 -0.84549 36114 ft 468 kts
2026-05-07 12:46 50.16795 -0.84132 36111 ft 468 kts
2026-05-07 12:46 50.23317 -0.83722 36108 ft 468 kts
2026-05-07 12:47 50.29801 -0.83310 36109 ft 468 kts
2026-05-07 12:47 50.36309 -0.82888 36108 ft 468 kts
2026-05-07 12:48 50.42818 -0.82466 36106 ft 468 kts
2026-05-07 12:48 50.49306 -0.82047 35623 ft 462 kts
2026-05-07 12:49 50.52528 -0.81840 34144 ft 464 kts 360°
2026-05-07 12:49 50.55772 -0.81634 32416 ft 466 kts
2026-05-07 12:49 50.58977 -0.81429 31456 ft 453 kts 360°
2026-05-07 12:49 50.62061 -0.81223 30720 ft 436 kts
2026-05-07 12:50 50.65073 -0.81022 29765 ft 434 kts 360°
2026-05-07 12:50 50.68100 -0.80824 28778 ft 440 kts
2026-05-07 12:50 50.71191 -0.80623 27764 ft 444 kts
2026-05-07 12:50 50.74316 -0.80423 26694 ft 453 kts
2026-05-07 12:51 50.77481 -0.80221 25544 ft 459 kts
2026-05-07 12:51 50.80687 -0.80014 24429 ft 465 kts
2026-05-07 12:51 50.83942 -0.79802 23343 ft 469 kts
2026-05-07 12:51 50.87149 -0.79590 22447 ft 465 kts
2026-05-07 12:52 50.90200 -0.79387 21624 ft 460 kts
2026-05-07 12:52 50.93403 -0.79174 20746 ft 457 kts
2026-05-07 12:52 50.96575 -0.78962 19888 ft 454 kts
2026-05-07 12:52 50.99719 -0.78755 19044 ft 451 kts
2026-05-07 12:53 51.02840 -0.78550 18185 ft 448 kts
2026-05-07 12:53 51.05943 -0.78347 17289 ft 443 kts
2026-05-07 12:53 51.09007 -0.78147 16473 ft 438 kts
2026-05-07 12:53 51.12029 -0.77948 15656 ft 433 kts
2026-05-07 12:54 51.15026 -0.77746 14866 ft 428 kts
2026-05-07 12:54 51.17979 -0.77546 14106 ft 425 kts
2026-05-07 12:54 51.20890 -0.77350 13336 ft 421 kts
2026-05-07 12:54 51.23837 -0.77153 12632 ft 416 kts
2026-05-07 12:55 51.26714 -0.76958 11941 ft 412 kts
2026-05-07 12:55 51.29524 -0.76768 11320 ft 406 kts
2026-05-07 12:55 51.32281 -0.76586 11161 ft 387 kts
2026-05-07 12:55 51.34910 -0.76416 11033 ft 368 kts
2026-05-07 12:56 51.37411 -0.76254 10909 ft 351 kts
2026-05-07 12:56 51.39798 -0.76096 10782 ft 337 kts
2026-05-07 12:56 51.42093 -0.75942 10657 ft 324 kts
2026-05-07 12:56 51.44304 -0.75791 10533 ft 313 kts
2026-05-07 12:57 51.46450 -0.75642 10417 ft 303 kts
2026-05-07 12:57 51.48534 -0.75496 10218 ft 296 kts
2026-05-07 12:57 51.50579 -0.75357 10151 ft 295 kts
2026-05-07 12:57 51.52626 -0.75217 10033 ft 295 kts
2026-05-07 12:58 51.54681 -0.75075 9731 ft 297 kts
2026-05-07 12:58 51.56742 -0.74934 9342 ft 295 kts
2026-05-07 12:58 51.58791 -0.74799 8965 ft 294 kts
2026-05-07 12:58 51.60798 -0.74666 8595 ft 293 kts
2026-05-07 12:59 51.62820 -0.74529 8303 ft 288 kts
2026-05-07 12:59 51.64827 -0.74393 7909 ft 287 kts
2026-05-07 12:59 51.66813 -0.74261 7439 ft 283 kts
2026-05-07 12:59 51.68658 -0.74137 7047 ft 276 kts
2026-05-07 13:00 51.70563 -0.74005 6694 ft 268 kts
2026-05-07 13:00 51.72377 -0.73878 6344 ft 253 kts
2026-05-07 13:00 51.74084 -0.73759 6012 ft 238 kts
2026-05-07 13:00 51.75686 -0.73645 5751 ft 226 kts
2026-05-07 13:01 51.77249 -0.73536 5439 ft 224 kts
2026-05-07 13:01 51.78799 -0.73359 5129 ft 222 kts 11°
2026-05-07 13:01 51.80208 -0.72441 4845 ft 219 kts 33°
2026-05-07 13:01 51.81290 -0.70766 4594 ft 212 kts 56°
2026-05-07 13:02 51.81910 -0.68650 4404 ft 206 kts 75°
2026-05-07 13:02 51.82288 -0.66479 4168 ft 195 kts 75°
2026-05-07 13:02 51.82654 -0.64408 3899 ft 188 kts 76°
2026-05-07 13:02 51.83001 -0.62434 3655 ft 182 kts 76°
2026-05-07 13:03 51.83343 -0.60488 3403 ft 177 kts 76°
2026-05-07 13:03 51.83673 -0.58606 3168 ft 172 kts 76°
2026-05-07 13:03 51.83996 -0.56761 2934 ft 169 kts 76°
2026-05-07 13:03 51.84313 -0.54949 2698 ft 166 kts 76°
2026-05-07 13:04 51.84624 -0.53171 2487 ft 163 kts 77°
2026-05-07 13:04 51.84932 -0.51409 2270 ft 162 kts 76°
2026-05-07 13:04 51.85236 -0.49668 2036 ft 159 kts 76°
2026-05-07 13:04 51.85533 -0.47965 1829 ft 156 kts 77°
2026-05-07 13:05 51.85817 -0.46336 1629 ft 146 kts 76°
2026-05-07 13:05 51.86089 -0.44776 1417 ft 142 kts 78°
2026-05-07 13:05 51.86351 -0.43263 1203 ft 139 kts 77°
2026-05-07 13:05 51.86607 -0.41791 1004 ft 137 kts 77°
2026-05-07 13:06 51.86865 -0.40312 814 ft 136 kts 76°
2026-05-07 13:06 51.87119 -0.38849 643 ft 134 kts 77°
2026-05-07 13:06 51.87365 -0.37432 525 ft 119 kts 76°
2026-05-07 13:06 51.87544 -0.36361 521 ft 74 kts 75°
2026-05-07 13:07 51.87627 -0.35951 516 ft 16 kts 56°
2026-05-07 13:07 51.87703 -0.35940 516 ft 10 kts 338°
2026-05-07 13:07 51.87773 -0.36019 517 ft 15 kts 291°
2026-05-07 13:07 51.87763 -0.36207 518 ft 20 kts 253°
2026-05-07 13:08 51.87718 -0.36437 519 ft 23 kts 253°
2026-05-07 13:08 51.87675 -0.36691 522 ft 22 kts 257°
2026-05-07 13:08 51.87650 -0.36873 525 ft 9 kts 264°
2026-05-07 13:08 51.87679 -0.36959 523 ft 9 kts 331°
2026-05-07 13:09 51.87751 -0.36989 518 ft 13 kts 344°
2026-05-07 13:09 51.87845 -0.37037 512 ft 15 kts 342°
2026-05-07 13:09 51.87950 -0.37096 509 ft 16 kts 340°
2026-05-07 13:09 51.88034 -0.37174 508 ft 12 kts 290°
2026-05-07 13:10 51.88030 -0.37293 508 ft 10 kts 255°
2026-05-07 13:10 51.88010 -0.37383 508 ft 7 kts 245°
2026-05-07 13:10 51.87980 -0.37397 508 ft 3 kts 175°
2026-05-07 13:10 51.87951 -0.37386 508 ft 5 kts 162°
2026-05-07 13:11 51.87947 -0.37383 508 ft 0 kts 161°